Theta_e
294 294 294 293 293 294 294 294 293 293 293 293 293 293 293 293 293 292 292 291 291 292 293 293 294 295 296 297 298 299 298 299 296 297 299 300 299 298 299 298 297 298 299
292 292 291 291 291 291 290 290 291 290 291 290 290 290 291 290 289 289 288 289 289 289 290 290 290 292 291 292 293 292 293 294 294 290 293 294 295 296 296 295 297 297 296
291 290 290 289 289 288 288 289 289 289 288 288 288 287 287 287 287 287 287 287 287 288 288 287 288 289 288 289 289 288 289 290 291 289 289 292 292 293 293 292 292 293 294
289 289 288 287 287 287 287 287 287 287 286 286 286 285 285 285 285 285 285 285 285 285 286 286 286 286 286 287 287 286 287 286 286 286 286 287 288 290 286 287 288 290 290
288 287 286 286 286 286 286 285 285 285 285 284 284 284 284 284 285 285 285 284 283 283 283 283 284 284 286 288 287 286 285 285 285 285 284 285 285 286 286 288 287 287 288
286 285 285 285 284 284 284 284 284 284 284 284 283 283 282 283 289 290 287 283 283 282 282 282 283 285 286 287 287 288 287 285 284 284 284 283 284 285 285 285 284 284 281
284 284 284 284 283 284 284 283 283 282 283 282 282 282 282 282 288 288 288 283 282 281 281 282 283 284 285 285 286 287 287 288 288 285 283 283 283 284 284 283 284 283 283
284 283 283 283 282 283 282 282 282 282 281 281 281 280 280 281 286 288 288 283 282 281 281 281 282 284 284 284 285 285 285 285 285 285 285 285 285 286 285 285 284 283 283
283 283 282 282 280 281 279 280 280 278 278 277 279 276 275 277 285 287 285 283 283 283 283 284 284 283 285 286 284 283 284 284 286 287 288 288 288 288 287 284 282 280 278
283 283 282 280 278 277 279 277 277 276 278 278 277 275 274 271 283 286 286 284 283 283 284 284 284 284 286 286 284 284 281 282 283 284 283 284 285 282 283 279 281 279 278
282 281 279 278 276 276 275 274 272 271 274 270 272 272 271 272 275 285 286 283 283 283 283 282 282 286 287 287 286 284 283 285 284 282 282 282 280 281 281 282 282 280 278
279 277 275 272 276 274 271 268 268 267 267 267 267 269 272 273 280 283 285 285 286 283 282 283 283 286 287 286 285 285 286 285 282 281 280 280 280 281 281 281 279 277 277
274 272 271 273 272 269 268 266 268 264 265 266 269 268 270 275 274 283 284 284 285 284 284 284 285 286 286 285 285 285 283 282 281 280 279 280 281 281 281 279 276 274 273
273 272 270 270 267 264 268 267 262 263 263 266 269 267 268 271 274 276 282 283 283 283 284 283 284 285 285 285 282 282 282 281 280 279 279 280 281 280 274 278 272 270 270
272 270 269 267 264 265 267 264 267 267 268 265 263 266 266 270 272 281 282 281 282 283 284 283 281 281 280 280 280 280 279 280 278 278 276 278 279 277 273 276 273 267 266
269 269 266 265 263 265 264 264 272 275 277 277 279 275 269 279 281 282 282 283 284 285 282 281 278 274 277 278 278 277 276 277 277 276 275 276 276 269 270 271 270 267 268
267 266 265 265 263 262 261 260 260 265 273 275 276 277 277 279 279 280 281 281 281 280 275 275 275 275 276 277 278 276 273 273 274 274 273 272 272 272 269 269 269 267 268
261 263 262 261 261 259 259 258 258 257 257 260 269 273 275 275 277 279 278 273 267 269 261 270 271 272 273 273 274 274 271 271 271 272 271 270 269 268 268 265 266 264 262
259 259 258 257 256 257 257 256 256 255 255 255 257 266 266 273 275 274 274 259 259 261 264 266 267 268 269 269 270 270 270 269 269 269 269 268 267 266 267 262 262 263 264
256 259 258 257 255 255 255 256 256 254 255 254 254 255 256 258 259 255 255 254 254 256 257 259 260 265 265 265 266 266 267 266 266 266 267 266 266 265 265 262 260 262 261
259 259 259 255 255 254 254 254 255 254 254 253 253 255 271 262 255 253 253 254 254 256 256 256 257 259 262 262 263 263 264 265 265 265 265 265 265 263 264 263 260 260 261
261 258 256 257 255 255 254 254 255 253 252 252 252 253 268 253 251 251 251 254 255 253 255 256 255 255 257 259 260 261 262 263 263 263 263 263 263 263 262 262 260 261 261
259 257 257 254 256 256 254 252 252 251 251 250 250 252 250 251 251 251 252 254 253 254 254 252 254 254 255 258 259 260 260 261 261 261 260 260 261 261 260 260 260 260 260
259 260 259 257 255 253 252 250 251 253 252 251 250 250 251 251 251 252 254 254 254 254 253 254 255 256 255 256 259 260 261 261 261 260 259 259 259 261 260 258 259 259 259
258 258 256 255 254 254 253 254 255 254 255 256 255 253 252 253 253 254 254 254 254 254 255 255 256 257 258 258 260 260 261 263 262 261 260 259 258 259 258 257 257 256 256
255 255 255 255 255 256 256 257 257 257 258 258 256 255 255 255 256 254 254 254 255 255 255 256 256 257 258 260 260 262 262 264 263 262 260 258 257 257 256 255 256 255 255
Wind_Speed
8 7 9 8 8 8 11 9 6 6 6 7 7 7 7 7 6 6 6 6 6 6 5 6 6 7 6 6 5 5 6 7 11 14 10 10 10 7 9 6 7 9 9
7 9 9 9 9 10 10 7 6 7 6 6 6 6 6 6 6 6 6 5 6 5 5 5 5 6 8 9 7 9 7 8 8 19 12 11 12 11 11 12 10 9 9
8 9 8 8 9 9 8 7 6 6 6 6 6 7 6 6 5 5 5 5 5 5 5 5 5 6 6 8 7 9 7 7 8 10 15 10 11 10 11 8 7 9 8
8 8 9 7 7 7 7 7 6 6 6 6 6 6 5 5 4 4 4 4 4 4 5 5 5 6 6 10 9 9 9 7 9 9 11 13 10 12 3 7 10 9 12
8 8 7 6 6 7 7 7 6 6 5 5 5 5 5 4 3 4 4 4 5 5 4 4 5 6 10 11 7 10 8 8 8 9 10 12 11 10 10 8 10 11 11
7 8 6 7 7 7 6 6 6 6 5 5 5 4 5 3 8 10 8 6 6 5 6 5 5 8 9 14 15 16 14 9 10 8 10 10 10 9 8 9 10 10 14
8 6 6 6 7 6 6 6 5 5 3 4 4 4 5 5 10 9 7 3 4 5 5 4 5 4 8 8 13 15 12 14 14 12 12 10 13 10 11 13 10 10 12
7 6 6 6 7 6 6 5 4 3 4 3 4 4 4 4 9 8 7 3 4 4 5 5 5 8 9 10 10 9 8 7 8 6 9 11 11 12 10 9 10 11 8
8 7 6 6 6 5 5 5 3 3 2 2 1 3 3 3 7 7 7 5 6 7 5 5 5 7 11 18 10 10 9 8 8 14 17 20 22 21 16 8 7 8 9
8 7 6 5 5 5 4 4 2 1 1 1 2 1 2 3 5 6 7 5 8 8 8 7 8 9 19 18 9 8 10 10 9 7 8 10 11 8 12 4 6 7 7
7 6 6 5 5 4 3 2 2 2 3 3 2 4 4 3 5 11 12 3 6 8 8 7 5 14 18 18 18 8 10 12 8 7 7 6 4 7 7 5 5 4 4
7 6 5 4 3 3 5 2 3 4 3 2 2 3 3 3 5 8 12 13 14 6 8 7 9 17 20 18 15 16 18 15 5 6 6 6 6 5 5 2 2 2 2
7 7 5 5 3 3 4 4 3 3 2 1 1 2 2 3 3 8 11 14 15 10 6 10 21 22 21 13 14 16 10 6 5 6 6 6 5 6 5 2 2 2 2
7 6 4 5 3 2 2 2 3 2 1 2 2 2 3 3 3 2 5 6 10 10 12 7 11 17 20 16 7 5 4 4 5 5 5 6 5 3 2 4 2 2 1
6 5 5 3 3 2 1 3 3 3 4 3 4 3 1 3 3 12 12 8 9 12 10 5 6 6 10 8 6 4 3 3 4 4 4 6 5 2 2 2 1 1 1
7 5 4 4 2 3 2 1 4 1 3 5 5 3 2 8 13 16 18 20 19 20 8 8 5 3 8 9 8 6 3 5 3 4 4 5 4 2 2 2 1 1 0
7 7 5 4 4 4 2 2 1 4 4 3 6 9 9 10 13 15 16 17 18 13 4 6 7 7 7 9 8 6 3 2 1 3 4 4 4 3 2 2 1 0 1
5 6 5 4 4 3 3 3 3 3 0 3 6 8 9 11 12 12 15 11 5 6 3 5 7 7 7 8 7 6 3 2 2 3 3 3 3 2 1 1 1 1 0
6 4 4 3 3 3 3 3 2 2 1 2 3 5 7 13 12 11 14 1 2 3 4 5 5 7 7 6 7 6 4 3 2 2 2 3 3 2 2 1 2 2 1
3 6 5 4 3 3 3 3 2 2 1 2 2 3 3 2 3 3 2 2 2 3 3 3 3 5 6 5 5 6 5 3 3 2 3 3 3 2 2 2 1 1 1
5 5 7 3 4 4 3 4 3 3 3 3 4 3 10 2 2 3 3 3 3 4 4 3 3 3 4 4 4 4 5 4 3 3 3 3 3 3 2 2 1 1 0
6 6 5 6 4 3 3 3 3 3 3 3 3 3 9 2 2 3 3 4 4 4 4 3 4 3 3 3 3 3 4 4 4 3 4 4 3 3 3 2 2 1 1
6 6 5 4 4 4 3 3 3 3 3 3 3 3 2 3 4 3 4 4 4 5 4 3 3 4 3 3 3 3 3 4 3 3 4 4 4 3 2 2 2 2 2
7 8 7 5 4 3 3 3 3 4 3 3 3 3 3 4 4 5 5 5 4 5 4 4 4 5 4 4 3 4 4 4 3 4 5 5 5 5 4 2 2 2 2
6 6 5 5 5 4 4 4 4 4 4 4 4 3 3 4 4 5 5 5 5 5 5 5 4 6 8 8 7 7 7 10 8 6 4 5 6 6 4 2 2 2 2
5 5 5 4 4 4 5 5 5 4 4 4 4 3 4 5 5 5 5 5 5 5 6 5 5 9 9 7 7 9 10 11 10 10 6 5 5 5 4 4 4 3 3
Wind_Direction
91 91 90 81 80 84 85 81 80 80 74 76 72 68 61 55 43 53 47 28 30 17 13 8 349 352 337 325 328 318 308 299 292 299 305 307 308 295 295 281 281 278 282
98 95 89 87 82 82 82 87 82 80 69 78 80 79 71 63 55 52 46 30 31 15 2 4 354 349 338 333 329 318 306 300 295 295 302 305 303 306 299 295 295 283 281
101 101 94 91 97 97 94 89 86 94 86 74 73 69 65 59 60 51 50 32 23 13 2 358 333 328 322 322 319 314 308 303 295 287 295 302 303 305 301 296 291 292 288
108 109 106 102 102 100 97 93 90 84 84 76 71 79 74 68 61 57 41 25 10 350 337 318 302 299 296 319 313 310 308 304 300 291 295 304 308 315 291 301 304 306 306
120 114 115 114 105 100 94 91 89 86 91 91 87 65 52 52 33 36 29 17 0 341 327 311 313 314 311 317 315 312 303 297 296 294 295 301 306 310 308 312 305 308 305
126 122 126 114 111 103 102 101 91 78 70 72 62 61 45 25 21 16 16 6 356 341 330 331 326 329 327 322 319 316 309 306 304 298 297 297 298 307 308 309 303 304 310
128 131 126 124 110 108 109 101 97 88 96 74 54 46 33 16 10 7 3 356 332 317 304 300 308 319 324 313 312 309 297 282 284 296 296 299 298 302 302 299 292 294 297
135 133 130 118 116 123 121 120 118 91 70 52 33 17 19 4 2 358 349 336 308 304 304 305 308 327 324 321 308 301 295 280 279 281 278 287 286 293 290 289 300 295 291
150 147 140 132 133 136 128 119 94 74 56 49 10 357 4 328 352 1 5 348 341 333 322 287 305 305 299 322 313 305 303 297 283 295 294 300 302 304 319 317 302 301 313
158 145 133 131 127 128 128 125 107 135 126 46 11 327 296 276 320 351 352 345 329 328 324 312 288 313 325 321 310 307 305 307 305 304 306 299 306 327 333 306 312 315 312
136 130 124 123 125 127 121 95 127 89 49 24 345 313 278 254 302 334 335 302 318 320 322 320 298 307 317 319 318 309 291 299 312 316 302 300 299 323 321 312 323 328 312
124 118 116 116 123 126 130 114 71 83 85 12 22 325 304 308 333 335 341 336 326 319 317 311 306 305 310 317 317 307 312 320 303 302 293 305 311 311 312 282 334 343 323
133 145 145 137 127 130 115 105 101 87 118 187 109 11 310 275 253 328 335 327 322 306 281 291 308 310 307 300 298 307 317 311 300 298 298 297 300 297 317 321 284 293 303
139 144 144 135 112 73 89 122 125 172 121 61 29 284 262 288 296 305 311 310 302 297 279 287 285 302 304 288 271 280 289 288 291 293 295 294 291 303 336 320 300 313 8
142 145 145 141 140 123 166 175 198 230 159 172 226 212 321 317 285 314 319 318 305 296 286 269 276 289 303 293 270 251 241 265 283 291 295 300 302 330 297 313 279 352 60
151 159 156 146 164 162 156 357 347 10 343 318 320 350 275 316 318 322 322 316 312 305 303 290 284 289 297 292 282 266 239 253 259 292 293 292 291 290 279 300 4 77 92
153 161 162 160 166 160 160 135 107 327 334 355 356 342 332 327 333 321 326 334 342 353 342 319 307 301 305 306 292 270 255 232 241 270 285 287 294 283 294 305 317 14 317
154 158 165 172 171 167 172 170 157 156 173 304 330 337 338 337 330 328 344 359 346 344 331 323 317 313 313 311 310 298 276 273 251 273 278 290 300 287 301 294 300 256 217
160 169 172 171 178 172 163 160 160 130 183 249 328 336 326 329 328 359 354 47 304 307 320 320 310 316 314 312 307 306 302 292 297 304 295 296 308 303 291 289 296 304 200
176 172 169 173 172 169 176 167 153 168 193 230 279 260 287 347 27 315 306 295 309 286 282 280 292 308 313 316 319 317 314 312 311 300 300 300 310 316 300 293 295 282 291
176 180 175 175 186 182 170 183 188 175 192 232 242 249 302 94 282 267 276 293 284 280 277 269 281 285 301 307 317 320 316 315 311 309 308 311 325 315 317 302 301 301 208
177 184 168 191 186 179 193 187 177 182 207 218 261 278 321 25 279 262 270 277 272 257 250 249 265 259 260 272 293 305 308 309 316 322 320 317 310 301 300 292 284 258 233
179 176 174 190 186 183 185 183 178 190 211 228 238 265 282 267 264 266 266 266 269 278 273 244 251 271 258 256 254 252 274 285 298 304 298 298 296 289 271 275 270 270 244
186 185 185 188 178 180 181 191 201 206 215 228 246 249 248 252 259 266 275 276 276 269 262 265 250 250 255 249 246 249 252 258 256 260 266 272 278 285 279 262 258 253 250
175 176 177 176 184 187 190 203 211 213 221 233 240 240 248 256 266 267 266 268 272 274 273 262 250 248 258 256 256 253 252 270 267 246 240 248 264 276 268 258 262 253 230
168 177 180 170 187 192 201 208 216 219 232 238 229 234 247 267 267 260 267 267 268 270 273 268 258 259 260 262 256 261 260 261 255 242 230 234 247 252 236 238 251 235 236